User: anonymous   Login
Location: Unspecified
(0.0000°N, 0.0000°E)
Time: 12:28:35
(UTC+00:00)
Language:

NOSS 2-1 (C) - Orbit

View from above orbital plane
View from above orbital plane
View from above satellite
View from above satellite

Ground track
Ground track

The orbit data is extracted from the following two-line orbital elements,

1 20691U 90050C   24099.38985549 0.00006500  00000-0  54871-3 0    09
2 20691  63.2970 191.8716 0914101  69.7365 290.2635 13.50600614    05
Epoch (UTC): 08 April 2024 09:21:23
Eccentricity: 0.0914101
inclination: 63.2970°
perigee height: 389 km
apogee height: 1751 km
right ascension of ascending node: 191.8716°
argument of perigee: 69.7365°
revolutions per day: 13.50600614
mean anomaly at epoch: 290.2635°
orbit number at epoch: 0

The dashed part of the orbit path shows where the satellite is in the earth's shadow,  

DLR